[[{"header":{"parameterUnit":"m.s-1","parameterCategory":1,"la1":30.2991,"la2":30.254,"lo1":-89.0895,"lo2":-89.0444,"dy":0.0017,"dx":0.0017,"nx":28,"ny":28,"refTime":"2025-07-05T03:00:00:Z","depth":0,"parameterNumber":2,"parameterNumberName":"U-component_of_WINDS"},"data":[0,0,0,0,0,0,0,0,0,0,0,0,0,0,0,0,0,0,0,0,0,0,0,0,0,0,0,0,0,0,0,0,0,0,0,0,0,0,0,0,0,0,0,0,0,0,0,0,0,0,0,0,0,0,0,0,0,0,0.5923,0.5924,0,0.5998,0.5998,0.5999,0.6016,0.6016,0.6015,0.6015,0.6092,0.6095,0.6097,0,0,0,0,0,0,0,0,0,0,0,0,0,0.5798,0.58,0.5923,0.5924,0.5925,0.5997,0.5998,0.6,0.6017,0.6016,0.6015,0.6015,0.6091,0.6094,0.6097,0,0,0,0,0,0,0,0,0,0,0,0,0,0.586,0.5801,0.5923,0.5942,0.5944,0.5997,0.5999,0.6,0.6017,0.6016,0.6015,0.6014,0.609,0.6094,0.6098,0.6137,0,0,0.6109,0.6111,0,0,0,0,0,0,0,0,0.5857,0.5865,0.5938,0.5941,0.5944,0.5997,0.5983,0.6046,0.6017,0.5989,0.6015,0.6014,0.6061,0.6067,0.6083,0.6141,0.6144,0.611,0.6112,0.6114,0.6115,0,0,0,0,0,0,0,0.5852,0.5862,0.5952,0.5939,0.5943,0.5948,0.5956,0.5995,0.6029,0.5992,0.5993,0.6002,0.6063,0.6079,0.6085,0.6145,0.611,0.6113,0.6115,0.6117,0.6243,0.6244,0,0,0,0,0,0,0.5845,0.5858,0.595,0.5955,0.5897,0.5951,0.596,0.5981,0.6028,0.6035,0.6002,0.6002,0.6073,0.6081,0.6088,0.614,0.6114,0.6117,0.612,0.6242,0.6243,0.6244,0,0,0,0,0,0,0.5842,0.5853,0.5947,0.5907,0.5919,0.5954,0.5977,0.5982,0.5999,0.6036,0.6043,0.6013,0.6073,0.6082,0.6126,0.6142,0.6119,0.6123,0.6241,0.6242,0.6244,0.6242,0,0,0,0,0,0,0.5838,0.5851,0.5866,0.5907,0.5921,0.5982,0.5978,0.5984,0.6006,0.6006,0.6048,0.6054,0.6073,0.612,0.6129,0.6147,0.6125,0.6239,0.6241,0.6243,0.624,0.6243,0.6245,0,0,0,0,0,0.5834,0.5861,0.5866,0.5877,0.594,0.5983,0.5992,0.6012,0.6007,0.6023,0.6047,0.6053,0.6139,0.6124,0.6135,0.6154,0.6238,0.6241,0.6243,0.6239,0.6243,0.6245,0,0,0,0,0,0,0.582,0.5867,0.5873,0.5915,0.5945,0.5986,0.6006,0.6014,0.6047,0.6046,0.6071,0.608,0.6123,0.6142,0.6125,0.6197,0.6189,0.6193,0.6182,0.6185,0.6188,0.6183,0.6129,0,0,0,0,0,0.5822,0.5853,0.5892,0.5926,0.5941,0.5971,0.599,0.6004,0.6037,0.6049,0.6077,0.6108,0.6143,0.6165,0.6199,0.6243,0.6255,0.6262,0.6265,0.6267,0.6271,0.63,0.6305,0.6252,0.6252,0.6252,0,0,0.5826,0.5856,0.5873,0.5924,0.5949,0.5982,0.5981,0.6015,0.604,0.6055,0.6098,0.6119,0.6156,0.6202,0.6223,0.622,0.6288,0.627,0.6271,0.6274,0.6303,0.6307,0.6312,0.6254,0.6253,0.6253,0,0,0.5851,0.5875,0.5907,0.5933,0.5972,0.5992,0.6,0.6041,0.6056,0.61,0.6112,0.6143,0.6201,0.6228,0.625,0.6289,0.6297,0.6299,0.6312,0.634,0.6344,0.6348,0.6365,0.637,0.6303,0.6303,0.6303,0,0.5851,0.5901,0.5923,0.5957,0.598,0.5996,0.603,0.6054,0.6101,0.6118,0.6113,0.6189,0.6215,0.6268,0.6278,0.6294,0.6306,0.6295,0.6342,0.6346,0.635,0.6366,0.6372,0.6303,0.6303,0.6303,0.6303,0,0.5901,0.5935,0.5957,0.6004,0.6029,0.6063,0.6092,0.6115,0.6127,0.6149,0.6195,0.6227,0.6269,0.6283,0.6294,0.6339,0.6336,0.6336,0.6329,0.6354,0.6371,0.6377,0.6303,0.6303,0.6303,0.6303,0,0,0.5917,0.5979,0.5986,0.6009,0.6055,0.6082,0.6118,0.616,0.6181,0.6214,0.6246,0.6297,0.6299,0.6323,0.6338,0.6362,0.6396,0.636,0.6362,0.6368,0.645,0.6451,0.6458,0.6401,0.6402,0.6403,0.6448,0,0.5949,0.6014,0.6037,0.6091,0.6124,0.6141,0.6173,0.6206,0.6228,0.626,0.6285,0.6321,0.6319,0.6335,0.6359,0.6386,0.6413,0.6383,0.6433,0.6435,0.6425,0.6466,0.6466,0.6507,0.6454,0.6455,0.6456,0,0.5995,0.603,0.6088,0.6133,0.6148,0.6176,0.6218,0.6248,0.6287,0.6301,0.633,0.6345,0.6385,0.6375,0.6433,0.6412,0.6435,0.6451,0.6453,0.646,0.6448,0.6476,0.652,0.6527,0.6466,0.6465,0.6464,0,0.6004,0.6066,0.611,0.6128,0.6181,0.6201,0.6224,0.6261,0.6286,0.6324,0.6341,0.6381,0.6404,0.6437,0.6463,0.6452,0.652,0.651,0.6535,0.6534,0.6548,0.6547,0.6599,0.656,0.6559,0.6559,0.6559,0,0.6038,0.6073,0.6115,0.6142,0.6183,0.621,0.625,0.6274,0.6308,0.6341,0.6358,0.6389,0.6421,0.6457,0.6477,0.6524,0.6534,0.6548,0.6554,0.6548,0.6546,0.6563,0.6562,0.6561,0.6561,0.656,0.656,0,0.6055,0.6084,0.6133,0.618,0.6193,0.6222,0.6263,0.6291,0.6314,0.6357,0.6368,0.6405,0.6449,0.6478,0.6533,0.6548,0.6599,0.6603,0.6586,0.6589,0.6613,0.6611,0.6679,0.669,0.6641,0.6641,0.6642,0,0.6075,0.6103,0.6154,0.6178,0.6202,0.6239,0.6266,0.6294,0.6321,0.6369,0.6392,0.6437,0.6474,0.6544,0.6576,0.662,0.6626,0.6647,0.6633,0.6627,0.663,0.6629,0.6633,0.6649,0.665,0.665,0.665,0,0.6109,0.6124,0.6161,0.6204,0.6236,0.6271,0.6307,0.6326,0.6361,0.6391,0.6436,0.6465,0.6523,0.6569,0.6616,0.6641,0.6653,0.6655,0.6663,0.6658,0.6649,0.6657,0.6595,0.6653,0.6653,0.6653,0.6653,0.6652,0.613,0.6157,0.6199,0.6241,0.6271,0.6305,0.6335,0.6364,0.6402,0.6452,0.6467,0.6515,0.6556,0.6621,0.6647,0.6686,0.6684,0.6695,0.6699,0.6702,0.6703,0.6641,0.6695,0.6695,0.6694,0.6694,0.6694,0,0.6167,0.6196,0.6234,0.6285,0.6319,0.6327,0.6368,0.6397,0.6439,0.6476,0.6514,0.6568,0.6613,0.6651,0.6698,0.6723,0.673,0.6734,0.6734,0.674,0.6701,0.669,0.6728,0.6728,0.6728,0.6728,0.6728,0.6728,0.619,0.6238,0.6258,0.6322,0.635,0.6398,0.6421,0.6454,0.6484,0.6544,0.6582,0.6607,0.6646,0.6697,0.6739,0.675,0.6767,0.6771,0.6783,0.6746,0.6742,0.6739,0.6729,0.6774,0.6774,0.6819,0.6819,0.682]},{"header":{"parameterUnit":"m.s-1","parameterCategory":1,"la1":30.2991,"la2":30.254,"lo1":-89.0895,"lo2":-89.0444,"dy":0.0017,"dx":0.0017,"nx":28,"ny":28,"refTime":"2025-07-05T03:00:00:Z","depth":0,"parameterNumber":3,"parameterNumberName":"V-component_of_WINDS"},"data":[0,0,0,0,0,0,0,0,0,0,0,0,0,0,0,0,0,0,0,0,0,0,0,0,0,0,0,0,0,0,0,0,0,0,0,0,0,0,0,0,0,0,0,0,0,0,0,0,0,0,0,0,0,0,0,0,0,0,-2.7019,-2.7018,0,-2.6921,-2.692,-2.6918,-2.6971,-2.6973,-2.6976,-2.6978,-2.6861,-2.6855,-2.685,0,0,0,0,0,0,0,0,0,0,0,0,0,-2.7239,-2.7235,-2.7019,-2.7018,-2.7017,-2.6921,-2.692,-2.6918,-2.697,-2.6973,-2.6977,-2.698,-2.6863,-2.6856,-2.6849,0,0,0,0,0,0,0,0,0,0,0,0,0,-2.7142,-2.7234,-2.7019,-2.7031,-2.7032,-2.6921,-2.6919,-2.6918,-2.6969,-2.6973,-2.6977,-2.6981,-2.6865,-2.6857,-2.6848,-2.6715,0,0,-2.6822,-2.6819,0,0,0,0,0,0,0,0,-2.7147,-2.7134,-2.7031,-2.703,-2.703,-2.6963,-2.6954,-2.6849,-2.6968,-2.6992,-2.6979,-2.6983,-2.689,-2.688,-2.6852,-2.671,-2.6705,-2.6822,-2.6817,-2.6813,-2.681,0,0,0,0,0,0,0,-2.7154,-2.7138,-2.698,-2.7029,-2.7029,-2.7038,-2.7028,-2.6934,-2.6919,-2.6991,-2.6994,-2.6983,-2.6891,-2.686,-2.685,-2.6703,-2.6822,-2.6814,-2.6809,-2.6806,-2.6446,-2.6441,0,0,0,0,0,0,-2.7162,-2.7144,-2.6983,-2.6977,-2.7101,-2.7031,-2.702,-2.698,-2.6921,-2.6916,-2.6979,-2.6986,-2.6873,-2.6859,-2.6846,-2.6684,-2.6813,-2.6805,-2.68,-2.645,-2.6445,-2.644,0,0,0,0,0,0,-2.7167,-2.7147,-2.6987,-2.7061,-2.7042,-2.7023,-2.6977,-2.6976,-2.6945,-2.6912,-2.6908,-2.6952,-2.6875,-2.6858,-2.6748,-2.668,-2.6801,-2.6794,-2.6455,-2.6448,-2.6442,-2.636,0,0,0,0,0,0,-2.7173,-2.7149,-2.71,-2.706,-2.7038,-2.6894,-2.6973,-2.6971,-2.6932,-2.694,-2.6885,-2.688,-2.6877,-2.6761,-2.674,-2.6671,-2.6787,-2.6461,-2.6452,-2.6444,-2.6368,-2.6351,-2.6336,0,0,0,0,0,-2.7181,-2.7077,-2.7097,-2.7078,-2.6977,-2.689,-2.6877,-2.688,-2.6927,-2.6876,-2.6856,-2.6881,-2.6694,-2.6749,-2.6726,-2.6653,-2.6465,-2.6455,-2.6445,-2.6375,-2.6354,-2.6337,0,0,0,0,0,0,-2.7102,-2.7072,-2.7094,-2.6976,-2.6936,-2.6899,-2.6834,-2.6858,-2.68,-2.6808,-2.6811,-2.6798,-2.6684,-2.6659,-2.6722,-2.6522,-2.6586,-2.6571,-2.6541,-2.652,-2.6505,-2.6509,-2.678,0,0,0,0,0,-2.7074,-2.701,-2.6985,-2.6882,-2.6863,-2.6853,-2.6814,-2.6822,-2.6778,-2.676,-2.6731,-2.6684,-2.6614,-2.6567,-2.6501,-2.6368,-2.6354,-2.6307,-2.6291,-2.6279,-2.6262,-2.6188,-2.6165,-2.6407,-2.6407,-2.6407,0,0,-2.7008,-2.6984,-2.6942,-2.6866,-2.6836,-2.6766,-2.6837,-2.6759,-2.6706,-2.6746,-2.6641,-2.662,-2.6567,-2.6445,-2.639,-2.642,-2.6195,-2.6266,-2.6256,-2.6246,-2.6175,-2.6152,-2.6132,-2.64,-2.6401,-2.6402,0,0,-2.6853,-2.6831,-2.6742,-2.6713,-2.667,-2.6665,-2.6645,-2.6606,-2.6594,-2.6492,-2.6521,-2.6456,-2.6337,-2.6298,-2.6262,-2.61,-2.612,-2.6079,-2.5991,-2.5919,-2.5899,-2.5882,-2.5819,-2.5797,-2.6065,-2.6065,-2.6064,0,-2.6775,-2.6675,-2.6692,-2.6614,-2.6578,-2.6621,-2.6529,-2.6498,-2.6433,-2.6405,-2.6444,-2.6297,-2.6264,-2.6132,-2.6094,-2.6066,-2.6037,-2.608,-2.5902,-2.5885,-2.5869,-2.5809,-2.5786,-2.6059,-2.606,-2.6061,-2.6061,0,-2.658,-2.651,-2.6444,-2.6386,-2.6345,-2.6259,-2.626,-2.6215,-2.6229,-2.6219,-2.6113,-2.6078,-2.6005,-2.5977,-2.5986,-2.5846,-2.5866,-2.5904,-2.5966,-2.5841,-2.5784,-2.5761,-2.6052,-2.6054,-2.6055,-2.6057,0,0,-2.6362,-2.6323,-2.6297,-2.6272,-2.6231,-2.6174,-2.6092,-2.6028,-2.5987,-2.5943,-2.5869,-2.5772,-2.5807,-2.5767,-2.5774,-2.5711,-2.558,-2.5756,-2.5754,-2.5719,-2.5419,-2.5385,-2.5359,-2.5598,-2.5594,-2.5591,-2.5421,0,-2.62,-2.6059,-2.6075,-2.5939,-2.5873,-2.5916,-2.5844,-2.5809,-2.5799,-2.5739,-2.5727,-2.5656,-2.5711,-2.5687,-2.5628,-2.5609,-2.5518,-2.5622,-2.5522,-2.5518,-2.5526,-2.533,-2.5293,-2.5135,-2.54,-2.5396,-2.5394,0,-2.5988,-2.5944,-2.5802,-2.5774,-2.5746,-2.5681,-2.5624,-2.5569,-2.5529,-2.5527,-2.5486,-2.5505,-2.5418,-2.5491,-2.5368,-2.5438,-2.54,-2.5385,-2.5379,-2.5362,-2.5442,-2.5301,-2.5085,-2.5058,-2.536,-2.5362,-2.5365,0,-2.5837,-2.5741,-2.5644,-2.5622,-2.5588,-2.554,-2.5523,-2.5489,-2.545,-2.54,-2.5374,-2.5313,-2.5277,-2.5228,-2.5228,-2.5283,-2.5102,-2.5176,-2.5091,-2.5091,-2.5043,-2.5044,-2.481,-2.5032,-2.5032,-2.5033,-2.5033,0,-2.5648,-2.5558,-2.5576,-2.5514,-2.5415,-2.5436,-2.5335,-2.5323,-2.5294,-2.5228,-2.5264,-2.52,-2.521,-2.5145,-2.5146,-2.5041,-2.5026,-2.5017,-2.5017,-2.5009,-2.5009,-2.4977,-2.4985,-2.5027,-2.5028,-2.5029,-2.503,0,-2.5457,-2.5466,-2.5362,-2.5342,-2.5335,-2.5262,-2.5242,-2.5182,-2.5181,-2.5098,-2.5079,-2.5073,-2.4999,-2.4999,-2.4913,-2.4914,-2.4785,-2.48,-2.4798,-2.4798,-2.4712,-2.4717,-2.4442,-2.4404,-2.4658,-2.4655,-2.4654,0,-2.5331,-2.5264,-2.5239,-2.5201,-2.5182,-2.512,-2.5083,-2.5102,-2.506,-2.5015,-2.496,-2.4892,-2.4837,-2.4718,-2.4702,-2.4637,-2.4646,-2.4556,-2.4636,-2.4631,-2.4637,-2.4637,-2.4628,-2.4535,-2.4533,-2.453,-2.4529,0,-2.5106,-2.5116,-2.5063,-2.5013,-2.4969,-2.4929,-2.4892,-2.4858,-2.4873,-2.4824,-2.4754,-2.4712,-2.463,-2.4559,-2.4498,-2.4475,-2.4501,-2.4506,-2.4481,-2.4468,-2.4467,-2.446,-2.4747,-2.4509,-2.4511,-2.4512,-2.4513,-2.4514,-2.4938,-2.4881,-2.4855,-2.4795,-2.4773,-2.4739,-2.4682,-2.4677,-2.462,-2.4557,-2.4573,-2.4492,-2.4456,-2.4378,-2.4351,-2.4285,-2.4316,-2.4282,-2.4272,-2.4261,-2.4249,-2.4487,-2.4275,-2.4276,-2.4276,-2.4277,-2.4277,0,-2.4709,-2.4697,-2.4643,-2.4594,-2.4547,-2.4588,-2.4551,-2.4506,-2.4437,-2.4405,-2.4354,-2.4272,-2.4206,-2.4189,-2.4125,-2.4075,-2.4085,-2.4056,-2.4055,-2.4049,-2.4228,-2.4253,-2.4049,-2.4049,-2.4049,-2.4049,-2.4049,-2.4049,-2.4583,-2.4487,-2.4495,-2.4387,-2.4375,-2.43,-2.4275,-2.4243,-2.4218,-2.4127,-2.4075,-2.4068,-2.4041,-2.3976,-2.3916,-2.3913,-2.3884,-2.3848,-2.3848,-2.4014,-2.4036,-2.4058,-2.408,-2.3844,-2.3844,-2.3674,-2.3672,-2.3671]}]]